Weather History for Los Angeles, CA

Change the Weather History Date:

Thursday, January 5, 2012

  Actual Average Record
Temperature  
Mean Temperature 71 °F 56 °F  
Max Temperature 83 °F 65 °F 83 °F (2006)
Min Temperature 59 °F 49 °F 32 °F (1949)
Degree Days  
Heating Degree Days 0 9  
Month to date heating degree days 6 45  
Since 1 July heating degree days 547 487  
Cooling Degree Days 6 0  
Month to date cooling degree days 10 0  
Year to date cooling degree days 10 0  
Growing Degree Days 20 (Base 50)    
Moisture  
Dew Point 33 °F    
Average Humidity 34    
Maximum Humidity 56    
Minimum Humidity 11    
Precipitation  
Precipitation 0.00 in 0.09 in 1.32 in (1979)
Month to date precipitation 0.00 0.45  
Year to date precipitation 0.00 0.45  
Since 1 July precipitation 3.00 4.46  
Sea Level Pressure  
Sea Level Pressure 30.08 in    
Wind  
Wind Speed 5 mph (NNW)    
Max Wind Speed 12 mph    
Max Gust Speed -    
Visibility 10 miles    
Events      
T = Trace of Precipitation, MM = Missing Value Source: NWS Daily Summary

Daily Weather History Graph

Daily Weather History Graph

Search for Another Location

Airport:

Trip Planner

Search our weather history database for the weather conditions in past years. The results will help you decide how hot, cold, wet, or windy it might be!

Date:

Astronomy

Jan. 05, 2012 Rise Set
Actual Time 6:59 AM PST 4:58 PM PST
Civil Twilight 6:31 AM PST 5:25 PM PST
Nautical Twilight 6:00 AM PST 5:57 PM PST
Astronomical Twilight 5:30 AM PST 6:27 PM PST
Moon 2:06 PM PST (1/5) 3:49 AM PST (1/5)
Length of Visible Light 10h 54m
Length of Day
9h 59m
Waxing Gibbous, 88% of the Moon is Illuminated
Jan 5
Waxing Gibbous
Jan 8
Full
Jan 16
Last Quarter
Jan 22
New
Jan 30
First Quarter

Hourly Weather History & Observations

Time (PST) Temp. Dew Point Humidity Pressure Visibility Wind Dir Wind Speed Gust Speed Precip Events Conditions
12:53 AM 66.0 °F 25.0 °F 21% 30.16 in 10.0 mi NE 4.6 mph - N/A   Mostly Cloudy
1:53 AM 64.9 °F 25.0 °F 22% 30.16 in 10.0 mi Calm Calm - N/A   Mostly Cloudy
2:53 AM 63.0 °F 25.0 °F 24% 30.16 in 10.0 mi NNE 3.5 mph - N/A   Mostly Cloudy
3:53 AM 64.9 °F 24.1 °F 21% 30.14 in 10.0 mi NE 4.6 mph - N/A   Mostly Cloudy
4:53 AM 62.1 °F 25.0 °F 24% 30.14 in 10.0 mi ENE 5.8 mph - N/A   Mostly Cloudy
5:53 AM 63.0 °F 23.0 °F 22% 30.14 in 10.0 mi Calm Calm - N/A   Mostly Cloudy
6:53 AM 62.6 °F 23.0 °F 22% 30.14 in 10.0 mi Calm Calm - N/A   Scattered Clouds
7:53 AM 66.0 °F 23.0 °F 20% 30.16 in 10.0 mi Calm Calm - N/A   Scattered Clouds
8:53 AM 70.0 °F 27.0 °F 20% 30.17 in 10.0 mi NE 4.6 mph - N/A   Partly Cloudy
9:53 AM 75.0 °F 25.0 °F 16% 30.16 in 10.0 mi ENE 8.1 mph - N/A   Partly Cloudy
10:53 AM 78.1 °F 23.0 °F 13% 30.13 in 10.0 mi Variable 4.6 mph - N/A   Partly Cloudy
11:53 AM 81.0 °F 21.9 °F 11% 30.08 in 10.0 mi ESE 5.8 mph - N/A   Partly Cloudy
12:53 PM 77.0 °F 36.0 °F 23% 30.05 in 10.0 mi West 10.4 mph - N/A   Partly Cloudy
1:53 PM 70.0 °F 44.1 °F 39% 30.03 in 10.0 mi West 11.5 mph - N/A   Partly Cloudy
2:53 PM 71.1 °F 36.0 °F 28% 30.03 in 10.0 mi West 11.5 mph - N/A   Partly Cloudy
3:53 PM 69.1 °F 39.0 °F 33% 30.02 in 10.0 mi West 8.1 mph - N/A   Scattered Clouds
4:53 PM 64.9 °F 45.0 °F 48% 30.01 in 10.0 mi West 8.1 mph - N/A   Scattered Clouds
5:53 PM 63.0 °F 46.9 °F 56% 30.02 in 10.0 mi West 8.1 mph - N/A   Partly Cloudy
6:53 PM 62.1 °F 45.0 °F 53% 30.01 in 10.0 mi West 4.6 mph - N/A   Clear
7:53 PM 63.0 °F 45.0 °F 52% 30.01 in 10.0 mi West 3.5 mph - N/A   Clear
8:53 PM 60.1 °F 45.0 °F 57% 30.01 in 10.0 mi East 3.5 mph - N/A   Clear
9:53 PM 62.1 °F 44.1 °F 52% 30.00 in 10.0 mi ESE 6.9 mph - N/A   Clear
10:53 PM 60.1 °F 43.0 °F 53% 29.99 in 10.0 mi Calm Calm - N/A   Clear
11:53 PM 60.1 °F 42.1 °F 51% 29.98 in 10.0 mi Calm Calm - N/A   Clear